TimeMST,TemperatureF,Dew PointF,Humidity,Sea Level PressureIn,VisibilityMPH,Wind Direction,Wind SpeedMPH,Gust SpeedMPH,PrecipitationIn,Events,Conditions,WindDirDegrees,DateUTC
12:15 AM,25.5,23.7,93,29.60,10.0,SE,4.6,-,N/A,,Overcast,130,2013-02-21 07:15:00
12:35 AM,25.0,23.4,94,29.60,10.0,Calm,Calm,-,N/A,,Mostly Cloudy,0,2013-02-21 07:35:00
12:55 AM,23.7,21.9,93,29.60,10.0,Calm,Calm,-,N/A,,Scattered Clouds,0,2013-02-21 07:55:00
1:15 AM,22.8,20.7,91,29.60,10.0,Calm,Calm,-,N/A,,Clear,0,2013-02-21 08:15:00
1:35 AM,20.5,18.3,91,29.60,10.0,Calm,Calm,-,N/A,,Clear,0,2013-02-21 08:35:00
1:55 AM,19.8,17.8,92,29.60,10.0,Calm,Calm,-,N/A,,Clear,0,2013-02-21 08:55:00
2:15 AM,20.8,19.4,94,29.60,10.0,Calm,Calm,-,N/A,,Clear,0,2013-02-21 09:15:00
2:35 AM,22.3,21.0,95,29.60,10.0,Calm,Calm,-,N/A,,Mostly Cloudy,0,2013-02-21 09:35:00
2:55 AM,23.5,22.1,94,29.59,10.0,Calm,Calm,-,N/A,,Overcast,0,2013-02-21 09:55:00
3:15 AM,22.6,20.8,93,29.59,10.0,West,3.5,-,N/A,,Mostly Cloudy,260,2013-02-21 10:15:00
3:35 AM,21.2,19.2,92,29.60,10.0,West,3.5,-,N/A,,Scattered Clouds,270,2013-02-21 10:35:00
3:55 AM,21.9,20.1,93,29.60,10.0,West,3.5,-,N/A,,Overcast,270,2013-02-21 10:55:00
4:15 AM,22.1,20.3,93,29.60,10.0,Calm,Calm,-,N/A,,Overcast,0,2013-02-21 11:15:00
5:15 AM,22.1,19.9,91,29.62,10.0,Calm,Calm,-,N/A,,Overcast,0,2013-02-21 12:15:00
5:35 AM,22.1,20.1,92,29.63,7.0,Calm,Calm,-,N/A,,Overcast,0,2013-02-21 12:35:00
5:55 AM,23.0,20.3,89,29.63,5.0,WSW,3.5,-,N/A,,Overcast,240,2013-02-21 12:55:00
6:15 AM,22.8,19.9,89,29.63,3.0,SW,3.5,-,N/A,,Overcast,230,2013-02-21 13:15:00
6:35 AM,23.0,20.8,91,29.64,1.8,Calm,Calm,-,N/A,,Overcast,0,2013-02-21 13:35:00
6:55 AM,23.7,21.2,90,29.65,1.2,Calm,Calm,-,N/A,,Overcast,0,2013-02-21 13:55:00
7:15 AM,23.7,21.2,90,29.66,1.2,Calm,Calm,-,N/A,,Overcast,0,2013-02-21 14:15:00
7:35 AM,23.9,21.9,92,29.67,1.0,Calm,Calm,-,N/A,,Overcast,0,2013-02-21 14:35:00
7:55 AM,24.4,22.1,91,29.68,0.8,Calm,Calm,-,N/A,,Overcast,0,2013-02-21 14:55:00
8:15 AM,24.8,22.1,89,29.69,1.0,Calm,Calm,-,N/A,,Overcast,0,2013-02-21 15:15:00
8:35 AM,25.5,22.8,89,29.70,1.0,Calm,Calm,-,N/A,,Overcast,0,2013-02-21 15:35:00
8:55 AM,25.7,22.6,88,29.70,1.5,Calm,Calm,-,N/A,,Overcast,0,2013-02-21 15:55:00
9:15 AM,26.2,22.8,87,29.70,2.5,SE,5.8,-,N/A,,Overcast,130,2013-02-21 16:15:00
9:35 AM,26.4,22.8,86,29.70,3.0,ESE,5.8,-,N/A,,Overcast,120,2013-02-21 16:35:00
9:55 AM,27.3,23.2,84,29.70,5.0,ESE,4.6,-,N/A,,Overcast,110,2013-02-21 16:55:00
10:15 AM,28.2,23.0,81,29.70,7.0,ESE,4.6,-,N/A,,Overcast,120,2013-02-21 17:15:00
10:35 AM,29.1,23.0,78,29.71,10.0,ESE,4.6,-,N/A,,Overcast,110,2013-02-21 17:35:00
10:55 AM,30.0,22.8,75,29.71,10.0,SE,3.5,-,N/A,,Overcast,140,2013-02-21 17:55:00
11:15 AM,30.9,23.5,74,29.70,10.0,Calm,Calm,-,N/A,,Overcast,0,2013-02-21 18:15:00
11:35 AM,30.4,23.0,74,29.70,10.0,Calm,Calm,-,N/A,,Overcast,0,2013-02-21 18:35:00
11:55 AM,31.8,23.9,73,29.70,10.0,Calm,Calm,-,N/A,,Overcast,0,2013-02-21 18:55:00
12:15 PM,32.0,23.5,71,29.70,10.0,NNE,3.5,-,N/A,,Overcast,30,2013-02-21 19:15:00
12:35 PM,33.4,22.8,65,29.69,10.0,Calm,Calm,-,N/A,,Overcast,0,2013-02-21 19:35:00
12:55 PM,34.0,25.0,70,29.68,10.0,NE,4.6,-,N/A,,Overcast,50,2013-02-21 19:55:00
1:15 PM,34.0,24.1,67,29.68,10.0,Calm,Calm,-,N/A,,Overcast,0,2013-02-21 20:15:00
1:35 PM,34.5,23.4,64,29.67,10.0,Calm,Calm,-,N/A,,Overcast,0,2013-02-21 20:35:00
1:55 PM,36.3,25.2,64,29.67,10.0,Calm,Calm,-,N/A,,Overcast,0,2013-02-21 20:55:00
2:15 PM,37.6,21.4,52,29.67,10.0,SSW,8.1,-,N/A,,Mostly Cloudy,210,2013-02-21 21:15:00
2:35 PM,38.7,18.1,44,29.67,10.0,SW,12.7,20.7,N/A,,Scattered Clouds,230,2013-02-21 21:35:00
2:55 PM,38.3,16.9,42,29.68,10.0,WSW,11.5,19.6,N/A,,Mostly Cloudy,250,2013-02-21 21:55:00
3:15 PM,36.9,16.3,43,29.68,10.0,West,17.3,23.0,N/A,,Scattered Clouds,280,2013-02-21 22:15:00
3:35 PM,36.5,15.6,43,29.68,10.0,West,19.6,26.5,N/A,,Scattered Clouds,260,2013-02-21 22:35:00
3:55 PM,36.9,16.9,44,29.70,10.0,WSW,18.4,26.5,N/A,,Mostly Cloudy,240,2013-02-21 22:55:00
4:15 PM,36.3,16.9,45,29.70,10.0,WSW,15.0,24.2,N/A,,Scattered Clouds,250,2013-02-21 23:15:00
4:35 PM,34.7,16.2,47,29.70,10.0,West,15.0,19.6,N/A,,Clear,260,2013-02-21 23:35:00
4:55 PM,34.7,15.4,45,29.72,10.0,WSW,15.0,20.7,N/A,,Scattered Clouds,250,2013-02-21 23:55:00
5:15 PM,33.1,16.3,50,29.72,10.0,WSW,10.4,18.4,N/A,,Scattered Clouds,240,2013-02-22 00:15:00
5:35 PM,32.0,16.9,54,29.73,10.0,WSW,11.5,20.7,N/A,,Scattered Clouds,240,2013-02-22 00:35:00
5:55 PM,31.3,16.5,54,29.74,10.0,WSW,9.2,-,N/A,,Scattered Clouds,250,2013-02-22 00:55:00
6:15 PM,30.9,16.7,56,29.76,10.0,West,10.4,-,N/A,,Clear,260,2013-02-22 01:15:00
6:35 PM,30.7,16.7,56,29.77,10.0,West,9.2,-,N/A,,Mostly Cloudy,260,2013-02-22 01:35:00
6:55 PM,28.8,16.7,61,29.78,10.0,SW,5.8,-,N/A,,Scattered Clouds,230,2013-02-22 01:55:00
7:15 PM,27.3,21.4,78,29.80,10.0,East,6.9,-,N/A,,Scattered Clouds,100,2013-02-22 02:15:00
7:35 PM,25.7,21.7,85,29.81,10.0,SE,6.9,-,N/A,,Clear,140,2013-02-22 02:35:00
7:55 PM,24.8,21.4,87,29.82,10.0,ESE,8.1,-,N/A,,Clear,120,2013-02-22 02:55:00
8:15 PM,23.5,20.7,89,29.83,10.0,SE,8.1,-,N/A,,Clear,140,2013-02-22 03:15:00
8:35 PM,23.0,20.3,89,29.84,10.0,SE,6.9,-,N/A,,Clear,130,2013-02-22 03:35:00
8:55 PM,22.5,20.1,91,29.85,10.0,SSE,8.1,-,N/A,,Clear,150,2013-02-22 03:55:00
9:15 PM,22.6,19.4,87,29.85,10.0,ESE,6.9,-,N/A,,Clear,120,2013-02-22 04:15:00
9:35 PM,22.6,19.4,87,29.86,10.0,SE,8.1,-,N/A,,Clear,140,2013-02-22 04:35:00
9:55 PM,22.5,18.9,86,29.86,10.0,Calm,Calm,-,N/A,,Clear,0,2013-02-22 04:55:00
10:15 PM,22.1,18.5,86,29.87,10.0,Calm,Calm,-,N/A,,Clear,0,2013-02-22 05:15:00
10:35 PM,21.0,18.1,89,29.87,10.0,ESE,6.9,-,N/A,,Clear,120,2013-02-22 05:35:00
11:15 PM,19.9,17.4,90,29.87,10.0,ESE,3.5,-,N/A,,Clear,120,2013-02-22 06:15:00
11:35 PM,18.9,16.9,92,29.87,7.0,Calm,Calm,-,N/A,,Clear,0,2013-02-22 06:35:00
11:55 PM,19.0,16.7,91,29.87,10.0,Calm,Calm,-,N/A,,Scattered Clouds,0,2013-02-22 06:55:00